Location: ??????
(38.1303°N, 24.0039°E)
Time: 17:50:31
(UTC+00:00)

DELTA 2 R/B (1) - Pass Details

Date: 24 October 2021
Orbit: 790 x 802 km, 39.6° (Epoch: 01 December)

Event Time Altitude Azimuth Distance (km) Brightness Sun altitude
Rises 18:04:31 0° 220° (SW) 3,288 7.2 -30.2°
Reaches altitude 10° 18:07:12 10° 211° (SSW) 2,359 6.2 -30.7°
Enters shadow 18:08:49 18° 201° (SSW) 1,862 5.6 -31.0°
